TimeCST,TemperatureF,Dew PointF,Humidity,Sea Level PressureIn,VisibilityMPH,Wind Direction,Wind SpeedMPH,Gust SpeedMPH,PrecipitationIn,Events,Conditions,WindDirDegrees,DateUTC
12:53 AM,39.9,27.0,60,29.95,10.0,South,6.9,-,N/A,,Overcast,190,2012-11-06 06:53:00
1:53 AM,39.0,27.0,62,29.92,10.0,South,9.2,-,N/A,,Overcast,180,2012-11-06 07:53:00
2:25 AM,39.2,26.6,61,29.88,10.0,South,11.5,-,N/A,,Overcast,190,2012-11-06 08:25:00
2:53 AM,39.0,27.0,62,29.90,10.0,South,10.4,-,N/A,,Overcast,190,2012-11-06 08:53:00
3:01 AM,39.2,26.6,61,29.86,10.0,South,10.4,-,N/A,,Overcast,190,2012-11-06 09:01:00
3:53 AM,39.0,28.0,65,29.86,10.0,South,10.4,-,N/A,,Overcast,180,2012-11-06 09:53:00
4:28 AM,35.6,30.2,81,29.83,7.0,South,6.9,-,N/A,,Overcast,170,2012-11-06 10:28:00
4:53 AM,36.0,32.0,86,29.84,7.0,Variable,5.8,-,0.00,,Overcast,0,2012-11-06 10:53:00
5:42 AM,35.6,32.0,87,29.79,6.0,SSE,5.8,-,N/A,,Overcast,160,2012-11-06 11:42:00
6:15 AM,35.6,33.8,93,29.78,6.0,South,4.6,-,N/A,,Overcast,170,2012-11-06 12:15:00
6:48 AM,35.6,33.8,93,29.78,5.0,South,8.1,-,N/A,,Overcast,180,2012-11-06 12:48:00
6:53 AM,36.0,33.1,89,29.81,5.0,South,8.1,-,N/A,,Overcast,190,2012-11-06 12:53:00
7:46 AM,35.6,33.8,93,29.77,3.0,South,8.1,-,0.00,,Overcast,180,2012-11-06 13:46:00
7:53 AM,36.0,33.1,89,29.80,4.0,South,8.1,-,0.00,,Overcast,190,2012-11-06 13:53:00
8:14 AM,37.4,33.8,87,29.77,4.0,South,9.2,16.1,0.00,,Overcast,180,2012-11-06 14:14:00
8:34 AM,37.4,33.8,87,29.77,6.0,South,10.4,-,0.00,,Overcast,180,2012-11-06 14:34:00
8:53 AM,37.0,33.1,86,29.80,8.0,South,10.4,-,0.00,,Overcast,190,2012-11-06 14:53:00
9:44 AM,37.4,33.8,87,29.76,5.0,South,6.9,-,0.00,,Overcast,190,2012-11-06 15:44:00
9:53 AM,37.0,34.0,89,29.79,5.0,South,8.1,-,0.00,,Overcast,180,2012-11-06 15:53:00
10:34 AM,37.4,33.8,87,29.76,10.0,South,9.2,17.3,N/A,,Overcast,180,2012-11-06 16:34:00
10:53 AM,37.9,34.0,86,29.79,10.0,South,8.1,-,N/A,,Overcast,180,2012-11-06 16:53:00
11:53 AM,37.9,34.0,86,29.77,10.0,SSW,10.4,16.1,N/A,,Overcast,200,2012-11-06 17:53:00
12:53 PM,37.9,34.0,86,29.77,10.0,South,9.2,-,N/A,,Overcast,190,2012-11-06 18:53:00
1:53 PM,37.9,34.0,86,29.78,10.0,SSW,6.9,-,N/A,,Overcast,200,2012-11-06 19:53:00
2:53 PM,37.9,34.0,86,29.79,10.0,SSW,8.1,-,N/A,,Overcast,200,2012-11-06 20:53:00
3:49 PM,37.4,35.6,93,29.79,10.0,South,3.5,-,N/A,,Overcast,190,2012-11-06 21:49:00
3:53 PM,37.9,35.1,89,29.81,10.0,SSW,4.6,-,N/A,,Overcast,200,2012-11-06 21:53:00
4:51 PM,37.4,33.8,87,29.81,10.0,Calm,Calm,-,N/A,,Overcast,0,2012-11-06 22:51:00
4:53 PM,37.9,34.0,86,29.84,10.0,South,3.5,-,N/A,,Overcast,190,2012-11-06 22:53:00
5:53 PM,37.0,34.0,89,29.86,10.0,Calm,Calm,-,N/A,,Overcast,0,2012-11-06 23:53:00
6:53 PM,37.0,34.0,89,29.88,10.0,Calm,Calm,-,N/A,,Overcast,0,2012-11-07 00:53:00
7:20 PM,37.4,35.6,93,29.86,10.0,Calm,Calm,-,N/A,,Overcast,0,2012-11-07 01:20:00
7:53 PM,37.0,35.1,93,29.89,10.0,Calm,Calm,-,N/A,,Overcast,0,2012-11-07 01:53:00
8:53 PM,37.0,35.1,93,29.91,10.0,Calm,Calm,-,N/A,,Overcast,0,2012-11-07 02:53:00
9:53 PM,37.0,35.1,93,29.92,10.0,WSW,3.5,-,N/A,,Overcast,250,2012-11-07 03:53:00
10:53 PM,37.0,35.1,93,29.94,10.0,SW,3.5,-,N/A,,Overcast,230,2012-11-07 04:53:00
11:53 PM,37.0,35.1,93,29.95,10.0,West,3.5,-,N/A,,Overcast,260,2012-11-07 05:53:00